• In France
  • List of Countries
  • For 7 days
  • Water Temperature
  • Satellite Maps
  • Weather Map
  • Weather Widgets
  • user-avatar
    Login

    Hourly Weather Bouake

    Today, 15 November, Thursday

    Time Temperature Precipitation Wind Pressure Humidity
    00:00 +27°C° 0 mm 2 mps 729 mmHg 74%
    01:00 +26°C° 0 mm 2 mps 729 mmHg 78%
    02:00 +26°C° 0 mm 2 mps 728 mmHg 81%
    03:00 +25°C° 0 mm 1 mps 728 mmHg 85%
    04:00 +25°C° 0 mm 1 mps 728 mmHg 87%
    05:00 +24°C° 0 mm 1 mps 728 mmHg 89%
    06:00 +24°C° 0 mm 1 mps 728 mmHg 91%
    07:00 +26°C° 0 mm 1 mps 729 mmHg 84%
    08:00 +27°C° 0 mm 1 mps 729 mmHg 77%
    09:00 +29°C° 0 mm 2 mps 729 mmHg 70%
    10:00 +31°C° 0 mm 1 mps 729 mmHg 62%
    11:00 +33°C° 0 mm 1 mps 729 mmHg 55%
    12:00 +35°C° 0 mm 1 mps 729 mmHg 47%
    13:00 +35°C° 0 mm 1 mps 728 mmHg 47%
    14:00 +35°C° 0 mm 1 mps 728 mmHg 47%
    15:00 +35°C° 0 mm 1 mps 727 mmHg 46%
    16:00 +34°C° 0 mm 1 mps 727 mmHg 50%
    17:00 +32°C° 0 mm 1 mps 727 mmHg 55%
    18:00 +31°C° 0 mm 2 mps 727 mmHg 59%
    19:00 +30°C° 0 mm 2 mps 728 mmHg 64%
    20:00 +29°C° 0 mm 2 mps 728 mmHg 69%
    21:00 +28°C° 0 mm 3 mps 729 mmHg 74%
    22:00 +27°C° 0 mm 3 mps 729 mmHg 78%
    23:00 +27°C° 0 mm 3 mps 729 mmHg 82%

    Tomorrow, 16 November, Friday

    Time Temperature Precipitation Wind Pressure Humidity
    00:00 +26°C° 0 mm 2 mps 729 mmHg 85%
    01:00 +26°C° 0 mm 2 mps 729 mmHg 88%
    02:00 +25°C° 0 mm 2 mps 728 mmHg 91%
    03:00 +25°C° 0 mm 2 mps 728 mmHg 94%
    04:00 +25°C° 0 mm 1 mps 728 mmHg 94%
    05:00 +24°C° 0 mm 1 mps 729 mmHg 94%
    06:00 +24°C° 0 mm 1 mps 729 mmHg 95%
    07:00 +25°C° 0 mm 1 mps 730 mmHg 90%
    08:00 +26°C° 0 mm 2 mps 730 mmHg 85%
    09:00 +27°C° 0 mm 2 mps 731 mmHg 80%
    10:00 +29°C° 0 mm 2 mps 731 mmHg 72%
    11:00 +31°C° 0 mm 2 mps 730 mmHg 64%
    12:00 +34°C° 0 mm 2 mps 730 mmHg 56%
    13:00 +35°C° 0 mm 2 mps 729 mmHg 53%
    14:00 +34°C° 0 mm 1 mps 729 mmHg 50%
    15:00 +35°C° 0 mm 1 mps 728 mmHg 47%
    16:00 +33°C° 0 mm 1 mps 728 mmHg 51%
    17:00 +32°C° 0 mm 1 mps 728 mmHg 56%
    18:00 +30°C° 0 mm 1 mps 728 mmHg 61%
    19:00 +29°C° 0 mm 1 mps 728 mmHg 65%
    20:00 +28°C° 0 mm 1 mps 729 mmHg 70%
    21:00 +28°C° 0 mm 2 mps 730 mmHg 74%
    22:00 +27°C° 0 mm 2 mps 730 mmHg 77%
    23:00 +27°C° 0 mm 2 mps 730 mmHg 80%

    Day after tomorrow, 17 November, Saturday

    Time Temperature Precipitation Wind Pressure Humidity
    00:00 +26°C° 0 mm 2 mps 730 mmHg 83%
    01:00 +26°C° 0 mm 2 mps 729 mmHg 86%
    02:00 +25°C° 0 mm 2 mps 729 mmHg 89%
    03:00 +25°C° 0 mm 2 mps 729 mmHg 91%
    04:00 +25°C° 0 mm 2 mps 729 mmHg 93%
    05:00 +24°C° 0 mm 2 mps 729 mmHg 94%
    06:00 +24°C° 0 mm 1 mps 729 mmHg 96%
    07:00 +26°C° 0 mm 2 mps 730 mmHg 88%
    08:00 +27°C° 0 mm 2 mps 730 mmHg 80%
    09:00 +29°C° 0 mm 2 mps 731 mmHg 72%
    10:00 +30°C° 0 mm 2 mps 731 mmHg 65%
    11:00 +32°C° 0 mm 2 mps 730 mmHg 58%
    12:00 +35°C° 0 mm 2 mps 730 mmHg 51%
    13:00 +35°C° 0.2 mm 2 mps 729 mmHg 51%
    14:00 +35°C° 0.2 mm 2 mps 728 mmHg 50%
    15:00 +35°C° 0.2 mm 2 mps 728 mmHg 50%
    16:00 +34°C° 0.2 mm 2 mps 728 mmHg 55%
    17:00 +31°C° 0.2 mm 2 mps 728 mmHg 61%
    18:00 +29°C° 0.2 mm 2 mps 728 mmHg 67%
    19:00 +28°C° 0.4 mm 2 mps 729 mmHg 73%
    20:00 +27°C° 0.4 mm 2 mps 729 mmHg 79%
    21:00 +26°C° 0.4 mm 2 mps 730 mmHg 85%
    22:00 +26°C° 0 mm 2 mps 730 mmHg 86%
    23:00 +25°C° 0 mm 2 mps 730 mmHg 87%

    18 November, Sunday

    Time Temperature Precipitation Wind Pressure Humidity
    00:00 +25°C° 0 mm 2 mps 730 mmHg 88%
    01:00 +25°C° 0 mm 2 mps 729 mmHg 90%
    02:00 +25°C° 0 mm 2 mps 729 mmHg 92%
    03:00 +24°C° 0 mm 2 mps 728 mmHg 94%
    04:00 +24°C° 0 mm 2 mps 729 mmHg 95%
    05:00 +24°C° 0 mm 1 mps 729 mmHg 96%
    06:00 +24°C° 0 mm 1 mps 729 mmHg 97%
    07:00 +25°C° 0 mm 2 mps 730 mmHg 90%
    08:00 +26°C° 0 mm 2 mps 730 mmHg 83%
    09:00 +28°C° 0 mm 3 mps 731 mmHg 76%
    10:00 +30°C° 0 mm 2 mps 730 mmHg 68%
    11:00 +31°C° 0 mm 2 mps 730 mmHg 61%
    12:00 +34°C° 0 mm 2 mps 729 mmHg 54%
    13:00 +34°C° 0 mm 2 mps 729 mmHg 51%
    14:00 +35°C° 0 mm 2 mps 728 mmHg 49%
    15:00 +35°C° 0 mm 2 mps 727 mmHg 46%
    16:00 +33°C° 0 mm 1 mps 727 mmHg 51%
    17:00 +31°C° 0 mm 1 mps 727 mmHg 55%
    18:00 +30°C° 0 mm 1 mps 727 mmHg 60%
    19:00 +29°C° 0.1 mm 1 mps 728 mmHg 63%
    20:00 +28°C° 0.1 mm 1 mps 729 mmHg 66%
    21:00 +28°C° 0.1 mm 1 mps 729 mmHg 69%
    22:00 +27°C° 0 mm 1 mps 729 mmHg 73%
    23:00 +26°C° 0 mm 2 mps 729 mmHg 76%

    19 November, Monday

    Time Temperature Precipitation Wind Pressure Humidity
    00:00 +26°C° 0 mm 2 mps 729 mmHg 80%
    01:00 +25°C° 0.3 mm 2 mps 728 mmHg 83%
    02:00 +25°C° 0.3 mm 2 mps 728 mmHg 87%
    03:00 +24°C° 0.3 mm 2 mps 728 mmHg 90%
    04:00 +24°C° 0.4 mm 1 mps 728 mmHg 92%
    05:00 +24°C° 0.4 mm 1 mps 728 mmHg 93%
    06:00 +24°C° 0.4 mm 1 mps 729 mmHg 94%
    07:00 +25°C° 0 mm 1 mps 729 mmHg 88%
    08:00 +27°C° 0 mm 1 mps 730 mmHg 82%
    09:00 +28°C° 0 mm 2 mps 730 mmHg 76%
    10:00 +30°C° 0.1 mm 1 mps 730 mmHg 66%
    11:00 +33°C° 0.1 mm 1 mps 729 mmHg 57%
    12:00 +35°C° 0.1 mm 1 mps 729 mmHg 48%
    13:00 +35°C° 0 mm 1 mps 728 mmHg 47%
    14:00 +33°C° 0 mm 0 mps 728 mmHg 45%
    15:00 +33°C° 0 mm 0 mps 727 mmHg 43%
    16:00 +32°C° 0 mm 0 mps 727 mmHg 47%
    17:00 +30°C° 0 mm 0 mps 727 mmHg 51%
    18:00 +31°C° 0 mm 1 mps 727 mmHg 55%
    19:00 +29°C° 0.6 mm 1 mps 728 mmHg 63%
    20:00 +28°C° 0.6 mm 1 mps 729 mmHg 70%
    21:00 +27°C° 0.6 mm 1 mps 729 mmHg 77%
    22:00 +26°C° 0.2 mm 1 mps 729 mmHg 81%
    23:00 +26°C° 0.2 mm 1 mps 729 mmHg 85%

    20 November, Tuesday

    Time Temperature Precipitation Wind Pressure Humidity
    00:00 +25°C° 0.2 mm 2 mps 729 mmHg 88%
    01:00 +25°C° 0.7 mm 1 mps 729 mmHg 90%
    02:00 +24°C° 0.7 mm 1 mps 728 mmHg 92%
    03:00 +24°C° 0.7 mm 1 mps 728 mmHg 93%
    04:00 +24°C° 0.3 mm 1 mps 728 mmHg 93%
    05:00 +24°C° 0.3 mm 1 mps 729 mmHg 92%
    06:00 +24°C° 0.3 mm 1 mps 729 mmHg 92%
    07:00 +25°C° 0 mm 1 mps 730 mmHg 87%
    08:00 +27°C° 0 mm 1 mps 730 mmHg 82%
    09:00 +28°C° 0 mm 1 mps 731 mmHg 78%
    10:00 +30°C° 0 mm 1 mps 731 mmHg 68%
    11:00 +32°C° 0 mm 1 mps 730 mmHg 59%
    12:00 +35°C° 0 mm 1 mps 730 mmHg 49%
    13:00 +34°C° 0.3 mm 1 mps 729 mmHg 51%
    14:00 +33°C° 0.3 mm 1 mps 729 mmHg 52%
    15:00 +32°C° 0.3 mm 1 mps 728 mmHg 54%
    16:00 +31°C° 0 mm 1 mps 728 mmHg 57%
    17:00 +30°C° 0 mm 1 mps 728 mmHg 61%
    18:00 +29°C° 0 mm 1 mps 729 mmHg 64%
    19:00 +28°C° 0.3 mm 1 mps 729 mmHg 68%
    20:00 +27°C° 0.3 mm 1 mps 730 mmHg 72%
    21:00 +26°C° 0.3 mm 1 mps 730 mmHg 76%
    22:00 +24°C° 0.4 mm 0 mps 730 mmHg 77%
    23:00 +24°C° 0.4 mm 0 mps 729 mmHg 78%
    Show more